Location: Plainartige
(45.6866°N, 1.7993°E)
Time: 21:31:39
(UTC+00:00)

POLYITAN 1 - Pass Details

Date: 30 June 2022
Orbit: 587 x 604 km, 98.0° (Epoch: 07 August)

Event Time Altitude Azimuth Distance (km) Brightness Sun altitude
Rises 02:44:08 0° 1° (N) 2,856 ? -11.3°
Reaches altitude 10° 02:46:38 10° 347° (NNW) 1,952 ? -11.0°
Maximum altitude 02:50:00 23° 295° (WNW) 1,280 ? -10.7°
Enters shadow 02:53:00 12° 245° (WSW) 1,831 ? -10.3°
